Flag for Germany Weather past 2 weeks in Gütersloh, North Rhine-Westphalia, Germany

Now
54 °F

Overcast.


Feels Like: 54 °F
Forecast: 48 / 56 °F
Wind: 3 mph from South

Location: Bad Lippspringe

Current Time: Oct 24, 2014 at 6:09:15 PM

Latest Report: Oct 24, 2014 at 5:00 PM


Visibility: 11 mi

Pressure: 30.11 "Hg

Humidity: 67%

Dew point: 44 °F

Location of GüterslohLocation

Historic Weather in Gütersloh — Graph

°F

Gütersloh temperature yesterday

Maximum temperature yesterday: 53 °F (at 5:00 PM)
Minimum temperature yesterday: 46 °F (at 9:00 AM)
Average temperature yesterday: 49 °F

Past Weeks' High & Low Weather Summary

 TemperatureHumidityPressure
High74 °F (Oct 19, 3:00 PM)99% (Oct 11, 8:00 AM)30.24 "Hg (Oct 11, 8:00 AM)
Low43 °F (Oct 22, 4:00 AM)54% (Oct 14, 3:00 PM)29.44 "Hg (Oct 21, 6:00 PM)
Average55 °F83%29.91 "Hg
* Reported Oct 9 5:00 PM — Oct 24 5:00 PM, Gütersloh, Weather by CustomWeather, © 2014

Note: Actual official high and low records may vary slightly from our data, if they occured in-between our weather recording intervals... More about our weather records

Advertising

Gütersloh weather history for previous 24 hours

 ConditionsComfort  
Time TempWeatherWind HumidityBarometerVisibility
5:00 PM
Oct 24
54 °FOvercast.3 mph67%30.11 "Hg11 mi
4:00 PM55 °FOvercast.5 mph67%30.12 "Hg10 mi
3:00 PM56 °FScattered clouds.3 mph66%30.13 "Hg6 mi
2:00 PM56 °FPassing clouds.3 mph69%30.15 "Hg6 mi
1:00 PM54 °FScattered clouds.3 mph73%30.17 "Hg5 mi
12:00 PM54 °FPassing clouds.3 mph71%30.18 "Hg7 mi
11:00 AM53 °FPassing clouds.5 mph77%30.19 "Hg7 mi
10:00 AM52 °FPassing clouds.5 mph79%30.19 "Hg8 mi
9:00 AM52 °FOvercast.3 mph79%30.19 "Hg11 mi
8:00 AM51 °FOvercast.1 mph84%30.18 "Hg14 mi
7:00 AM51 °FOvercast.1 mph85%30.18 "Hg9 mi
6:00 AM50 °FOvercast.1 mph88%30.18 "Hg8 mi
5:00 AM51 °FOvercast.1 mph88%30.19 "Hg7 mi
4:00 AM50 °FFog.No wind94%30.20 "Hg4 mi
3:00 AM50 °FOvercast.1 mph89%30.20 "Hg6 mi
2:00 AM50 °FOvercast.1 mph90%30.21 "Hg6 mi
1:00 AM51 °FOvercast.1 mph84%30.21 "Hg6 mi
12:00 AM51 °FOvercast.1 mph86%30.21 "Hg6 mi
11:00 PM
Oct 23
51 °FOvercast.1 mph84%30.22 "Hg5 mi
10:00 PM52 °FOvercast.1 mph83%30.22 "Hg5 mi
9:00 PM52 °FFog.2 mph83%30.22 "Hg4 mi
8:00 PM51 °FOvercast.1 mph85%30.22 "Hg5 mi
7:00 PM52 °FOvercast.2 mph85%30.21 "Hg6 mi
6:00 PM53 °FOvercast.1 mph84%30.21 "Hg6 mi
Weather by CustomWeather, © 2014

See weather overviewHow to use our weather pages